Waarnemingen

Advertentie
Mijn weer
Semmerzake, België (6428): temperatuur & dauwpunt: 09.10.2019 06:00:00 - 15.10.2019 06:00:00 (CEST)Semmerzake, België (6428): windsnelheid & windstoten: 09.10.2019 06:00:00 - 15.10.2019 06:00:00 (CEST)Semmerzake, België (6428): windrichting: 09.10.2019 06:00:00 - 15.10.2019 06:00:00 (CEST)Semmerzake, België (6428): luchtdruk: 09.10.2019 06:00:00 - 15.10.2019 06:00:00 (CEST)Semmerzake, België (6428): zicht: 09.10.2019 06:00:00 - 15.10.2019 06:00:00 (CEST)
Datum & Tijd tt [°C] td [°C] ff [km/u] ff [kn] fx [km/u] fx [kn] dd ppp [hPa] vv [km]
15.10.2019 06:00:00 14,5 13,1 7 4 25 14 ZZW 1004,8 20
15.10.2019 05:00:00 15,1 13,1 14 8 - - ZZW 1005,2 20
15.10.2019 04:00:00 15,3 13,4 14 8 25 14 Z 1005,2 20
15.10.2019 03:00:00 15,6 13,4 14 8 29 16 ZZW 1005,2 20
15.10.2019 02:00:00 16,3 12,9 18 10 - - ZZW 1005,6 20
15.10.2019 01:00:00 16,8 12,3 25 14 40 21 ZZW 1005,3 20
15.10.2019 00:00:00 17,2 13,0 14 8 25 14 Z 1004,8 20
14.10.2019 23:00:00 16,5 14,8 4 2 - - N 1004,5 19
14.10.2019 22:00:00 18,5 15,1 14 8 54 29 ZW 1005,5 20
14.10.2019 21:00:00 19,1 14,6 7 4 18 10 ZZO 1004,6 20
14.10.2019 20:00:00 19,1 15,0 11 6 - - ZZO 1005,2 20
14.10.2019 19:00:00 19,6 15,1 4 2 18 10 N 1005,1 20
14.10.2019 18:00:00 20,5 15,0 11 6 22 12 ZZO 1005,1 20
14.10.2019 17:00:00 20,7 15,4 11 6 - - Z 1005,6 20
14.10.2019 16:00:00 20,7 15,1 11 6 22 12 Z 1006,7 20
14.10.2019 15:00:00 20,2 15,2 11 6 22 12 ZZO 1007,1 20
14.10.2019 14:00:00 19,0 14,9 11 6 - - ZZO 1008,0 20
14.10.2019 13:00:00 17,3 14,1 7 4 22 12 OZO 1008,8 13
14.10.2019 12:00:00 15,8 13,6 11 6 25 14 O 1009,7 19
14.10.2019 11:00:00 14,6 13,0 11 6 - - O 1010,6 18
14.10.2019 10:00:00 13,5 13,0 7 4 14 8 ONO 1011,3 10
14.10.2019 09:00:00 12,7 12,5 7 4 11 6 NNO 1011,5 6
14.10.2019 08:00:00 12,6 12,3 4 2 - - N 1011,8 9
14.10.2019 07:00:00 12,3 12,1 4 2 7 4 N 1012,7 9
14.10.2019 06:00:00 12,6 12,3 4 2 11 6 N 1013,0 17
14.10.2019 05:00:00 12,5 12,2 4 2 - - N 1013,0 14
14.10.2019 04:00:00 12,8 12,3 4 2 7 4 N 1013,1 14
14.10.2019 03:00:00 13,8 12,9 4 2 14 8 N 1013,2 17
14.10.2019 02:00:00 13,8 13,1 7 4 - - ZW 1013,7 20
14.10.2019 01:00:00 14,1 13,3 11 6 14 8 ZZW 1013,1 20
14.10.2019 00:00:00 14,3 13,4 7 4 18 10 ZZW 1012,7 20
13.10.2019 23:00:00 14,6 13,5 11 6 - - ZZW 1012,2 20
13.10.2019 22:00:00 14,6 13,5 11 6 18 10 ZZW 1010,8 20
13.10.2019 21:00:00 14,6 13,6 11 6 32 18 ZW 1010,5 16
13.10.2019 20:00:00 15,3 13,9 14 8 - - ZW 1009,6 5
13.10.2019 19:00:00 15,8 15,7 18 10 47 25 WZW 1008,0 17
13.10.2019 18:00:00 21,1 15,3 25 14 43 23 ZZW 1006,2 20
13.10.2019 17:00:00 21,3 15,2 25 14 - - ZZW 1006,2 20
13.10.2019 16:00:00 21,7 15,5 25 14 50 27 ZZW 1006,1 20
13.10.2019 15:00:00 21,8 14,9 32 18 50 27 ZZW 1006,1 20
13.10.2019 14:00:00 21,3 15,0 29 16 - - ZZW 1005,7 20
13.10.2019 13:00:00 21,0 14,6 25 14 47 25 Z 1005,6 20
13.10.2019 12:00:00 20,0 15,1 22 12 43 23 Z 1006,1 20
13.10.2019 11:00:00 18,8 15,3 22 12 - - ZZW 1006,7 20
13.10.2019 10:00:00 17,9 15,8 22 12 32 18 Z 1006,7 20
13.10.2019 09:00:00 16,5 15,5 11 6 22 12 Z 1006,7 17
13.10.2019 08:00:00 16,1 15,3 11 6 - - Z 1007,1 10
13.10.2019 07:00:00 16,2 15,1 11 6 25 14 Z 1007,5 9
13.10.2019 06:00:00 15,9 14,9 11 6 29 16 ZZW 1007,5 14
13.10.2019 05:00:00 15,6 14,6 11 6 - - Z 1007,8 13
13.10.2019 04:00:00 16,0 14,5 11 6 18 10 Z 1008,0 15
13.10.2019 03:00:00 16,4 14,0 11 6 25 14 Z 1008,6 18
13.10.2019 02:00:00 16,3 13,8 11 6 - - Z 1008,8 19
13.10.2019 01:00:00 15,4 13,7 11 6 22 12 Z 1009,2 17
13.10.2019 00:00:00 15,4 13,8 14 8 22 12 Z 1009,6 16
12.10.2019 23:00:00 15,8 13,7 11 6 - - Z 1009,8 18
12.10.2019 22:00:00 15,8 13,6 14 8 25 14 Z 1009,2 17
12.10.2019 21:00:00 16,2 13,4 14 8 25 14 Z 1009,7 20
12.10.2019 20:00:00 16,0 13,1 14 8 - - ZZW 1009,6 20
12.10.2019 19:00:00 16,6 13,3 11 6 22 12 Z 1009,1 20
12.10.2019 18:00:00 17,2 13,4 14 8 29 16 ZZW 1009,2 20
12.10.2019 17:00:00 17,8 13,3 22 12 - - ZZW 1009,3 20
12.10.2019 16:00:00 17,6 13,3 18 10 29 16 ZZW 1010,0 20
12.10.2019 15:00:00 17,8 13,2 14 8 29 16 ZZW 1010,2 20
12.10.2019 14:00:00 17,3 13,2 18 10 - - ZZW 1010,7 20
12.10.2019 13:00:00 16,5 12,7 18 10 29 16 ZZW 1010,7 20
12.10.2019 12:00:00 16,1 12,8 11 6 29 16 ZZW 1010,2 20
12.10.2019 11:00:00 16,0 12,4 18 10 - - ZZW 1010,1 20
12.10.2019 10:00:00 14,7 11,7 18 10 32 18 ZZW 1009,7 20
12.10.2019 09:00:00 13,6 11,3 22 12 36 19 ZZW 1009,2 20
12.10.2019 08:00:00 13,6 11,2 22 12 - - ZZW 1008,7 20
12.10.2019 07:00:00 13,8 11,3 22 12 32 18 ZZW 1008,6 20
12.10.2019 06:00:00 14,0 11,4 18 10 29 16 ZZW 1008,5 20
12.10.2019 05:00:00 14,0 11,4 14 8 - - ZZW 1008,6 20
12.10.2019 04:00:00 14,1 11,4 14 8 29 16 ZZW 1008,7 20
12.10.2019 03:00:00 15,1 11,7 18 10 29 16 ZZW 1008,7 20
12.10.2019 02:00:00 15,8 11,8 22 12 - - ZZW 1008,7 20
12.10.2019 01:00:00 16,0 12,0 22 12 36 19 ZZW 1008,6 20
12.10.2019 00:00:00 16,5 12,1 25 14 40 21 ZZW 1008,8 20
11.10.2019 23:00:00 16,4 12,2 22 12 - - ZZW 1009,3 20
11.10.2019 22:00:00 16,2 12,1 22 12 40 21 ZZW 1009,5 20
11.10.2019 21:00:00 16,5 12,1 22 12 40 21 ZZW 1009,5 20
11.10.2019 20:00:00 16,3 12,3 25 14 - - ZZW 1009,7 20
11.10.2019 19:00:00 15,8 12,7 18 10 47 25 ZW 1010,2 18
11.10.2019 18:00:00 16,2 12,3 29 16 50 27 ZZW 1009,8 20
11.10.2019 17:00:00 16,1 12,0 29 16 - - ZZW 1010,0 20
11.10.2019 16:00:00 15,7 11,6 25 14 47 25 ZZW 1010,5 20
11.10.2019 15:00:00 15,1 11,6 29 16 47 25 ZZW 1011,0 20
11.10.2019 14:00:00 14,9 11,7 25 14 - - ZZW 1011,8 20
11.10.2019 13:00:00 14,6 11,6 25 14 43 23 ZZW 1012,5 20
11.10.2019 12:00:00 14,1 11,6 25 14 43 23 ZZW 1012,6 20
11.10.2019 11:00:00 14,0 11,5 22 12 - - ZZW 1013,0 20
11.10.2019 10:00:00 13,3 11,3 22 12 47 25 ZZW 1013,2 19
11.10.2019 09:00:00 12,7 11,1 22 12 40 21 ZZW 1013,2 19
11.10.2019 08:00:00 12,8 10,5 25 14 - - ZZW 1012,8 20
11.10.2019 07:00:00 12,6 10,2 25 14 40 21 ZZW 1013,3 20
11.10.2019 06:00:00 12,6 9,7 22 12 36 19 ZZW 1013,7 20
11.10.2019 05:00:00 12,6 9,4 22 12 - - ZZW 1013,8 20
11.10.2019 04:00:00 13,0 9,0 22 12 40 21 ZZW 1014,2 20
11.10.2019 03:00:00 13,1 8,6 22 12 40 21 ZZW 1014,3 20
11.10.2019 02:00:00 13,4 8,3 25 14 - - ZZW 1014,6 20
11.10.2019 01:00:00 12,6 8,4 18 10 32 18 ZZW 1015,2 20
11.10.2019 00:00:00 12,5 8,4 18 10 32 18 ZZW 1015,3 20
10.10.2019 23:00:00 13,4 8,4 18 10 - - ZZW 1015,5 20
10.10.2019 22:00:00 13,8 8,7 18 10 29 16 ZZW 1015,6 20
10.10.2019 21:00:00 14,0 8,8 11 6 36 19 ZZW 1015,7 19
10.10.2019 20:00:00 14,2 9,4 14 8 - - ZW 1016,0 17
10.10.2019 19:00:00 14,5 9,1 14 8 29 16 ZW 1015,7 17
10.10.2019 18:00:00 15,2 7,8 18 10 36 19 ZW 1015,2 19
10.10.2019 17:00:00 15,9 8,4 18 10 - - WZW 1015,1 19
10.10.2019 16:00:00 16,4 7,3 14 8 43 23 WZW 1015,2 20
10.10.2019 15:00:00 16,5 7,3 18 10 36 19 WZW 1014,8 19
10.10.2019 14:00:00 15,1 7,9 25 14 - - WZW 1014,8 19
10.10.2019 13:00:00 14,8 8,2 22 12 40 21 WZW 1014,7 20
10.10.2019 12:00:00 13,9 8,6 18 10 32 18 WZW 1014,3 20
10.10.2019 11:00:00 12,3 9,2 14 8 - - ZW 1014,0 19
10.10.2019 10:00:00 10,6 8,6 11 6 22 12 ZW 1013,3 20
10.10.2019 09:00:00 8,8 7,7 11 6 18 10 ZZW 1012,5 19
10.10.2019 08:00:00 8,8 7,8 11 6 - - ZW 1011,5 18
10.10.2019 07:00:00 8,8 8,1 11 6 18 10 ZW 1010,6 20
10.10.2019 06:00:00 9,0 8,2 11 6 25 14 ZW 1009,8 20
10.10.2019 05:00:00 9,5 8,6 14 8 - - ZW 1009,2 20
10.10.2019 04:00:00 9,3 8,7 11 6 25 14 ZZW 1008,6 20
10.10.2019 03:00:00 9,6 8,8 11 6 29 16 ZZW 1008,1 20
10.10.2019 02:00:00 9,8 9,1 14 8 - - ZZW 1008,0 15
10.10.2019 01:00:00 10,3 8,8 18 10 29 16 ZZW 1007,7 20
10.10.2019 00:00:00 10,5 9,4 18 10 36 19 ZZW 1007,8 20
09.10.2019 23:00:00 10,8 8,2 22 12 - - ZZW 1007,8 20
09.10.2019 22:00:00 10,8 8,3 18 10 32 18 ZZW 1008,1 20
09.10.2019 21:00:00 11,0 8,9 18 10 29 16 ZZW 1007,8 19
09.10.2019 20:00:00 11,6 9,2 14 8 - - ZW 1007,7 20
09.10.2019 19:00:00 12,1 9,2 18 10 36 19 ZW 1007,0 20
09.10.2019 18:00:00 12,1 9,1 18 10 40 21 ZW 1006,7 20
09.10.2019 17:00:00 12,1 8,6 22 12 - - ZW 1006,1 20
09.10.2019 16:00:00 12,0 8,9 22 12 40 21 ZW 1006,3 20
09.10.2019 15:00:00 12,5 8,8 25 14 43 23 ZW 1006,3 20
09.10.2019 14:00:00 11,7 9,0 18 10 - - ZW 1006,1 20
09.10.2019 13:00:00 11,9 9,8 18 10 29 16 ZW 1006,5 20
09.10.2019 12:00:00 10,5 9,0 14 8 32 18 ZW 1007,0 20
09.10.2019 11:00:00 11,3 9,6 18 10 - - WZW 1007,5 16
09.10.2019 10:00:00 11,1 9,9 18 10 29 16 ZZW 1007,6 10
09.10.2019 09:00:00 11,1 9,7 14 8 29 16 ZZW 1007,3 13
09.10.2019 08:00:00 10,9 9,5 14 8 - - ZZW 1007,3 11
09.10.2019 07:00:00 11,1 9,7 14 8 29 16 ZZW 1008,2 16
09.10.2019 06:00:00 11,3 9,9 14 8 29 16 ZZW 1008,3 17

tt = temperatuur
td = dauwpunt
ff = windsnelheid
fx = windstoten
dd = windrichting
ppp = luchtdruk
vv = zicht

Weerstations in de omgeving